Regional Weather Roundup
Issued by NWS Charleston, SC

Current Version | Previous Version | Graphics & Text | Print | Product List | Glossary On
Versions: 1 2 3 4 5 6 7 8 9 10 11 12 13 14 15 16 17 18 19 20 21 22 23 24 25 26 27 28 29 30 31 32 33 34 35 36 37 38 39 40 41 42 43 44 45 46 47 48 49 50
000
ASUS42 KCHS 251612
RWRCHS

REGIONAL WEATHER ROUNDUP
NATIONAL WEATHER SERVICE CHARLESTON SC
1200 PM EDT MON MAY 25 2015

NOTE: "FAIR" INDICATES FEW OR NO CLOUDS BELOW 12,000 FEET WITH NO
SIGNIFICANT WEATHER AND/OR OBSTRUCTIONS TO VISIBILITY.

NOT ALL STATIONS ARE QUALITY CONTROLLED BY THE NATIONAL
WEATHER SERVICE. USE DATA WITH CAUTION...ESPECIALLY
DEWPOINT OBSERVATIONS.

SCZ027-030-031-034>040-042>050-251700-
...SOUTHEAST SOUTH CAROLINA...

CITY           SKY/WX    TMP DP  RH WIND       PRES   REMARKS
N CHARLESTON   PTSUNNY   79  64  60 SE8       30.32S
WATERFRONT PAR   N/A     79  67  66 E12       30.29S
MOUNT PLEASANT FAIR      79  66  65 E3        30.33R
JOHNS ISLAND   PTSUNNY   79  66  65 E9        30.32S
PINOPOLIS        N/A     81  64  57 VRB2      30.23F
MONCKS CORNER  CLOUDY    81  64  57 S6        30.32F
SUMMERVILLE    CLOUDY    81  64  57 CALM      30.32F
BEAUFORT MCAS  CLOUDY    79  68  69 E10       30.30F
BEAUFORT ARPT  CLOUDY    79  70  73 E8        30.30S
HILTON HEAD IS PTSUNNY   79  70  73 NE9       30.31S
WALTERBORO     CLOUDY    79  66  65 SE7       30.31F
ALLENDALE      CLOUDY    79  66  65 E8        30.30S

...SOUTHERN MIDLANDS AND PEE DEE...

CITY           SKY/WX    TMP DP  RH WIND       PRES   REMARKS
GEORGETOWN     NOT AVBL
KINGSTREE      NOT AVBL
ORANGEBURG     MOSUNNY   79  62  56 SE9       30.32F
BARNWELL       FAIR      81  64  57 E8        30.31F
AIKEN          CLOUDY    79  55  44 SE7       30.34F
MANNING        CLOUDY    77  59  53 S5        30.33S
COLUMBIA       MOSUNNY   82  61  48 VRB6      30.30F
SUMTER         SUNNY     80  59  48 SE7       30.30F
FLORENCE       SUNNY     80  59  48 VRB5      30.33F
MYRTLE BEACH   MOSUNNY   79  61  53 SE12      30.36F
N MYRTLE BEACH SUNNY     77  61  57 SE10      30.35S

$$

GAZ063-065-086>088-099>101-113>116-118-119-134>141-150-251700-
...SOUTHEAST GEORGIA...

CITY           SKY/WX    TMP DP  RH WIND       PRES   REMARKS
SAVANNAH ARPT  CLOUDY    80  68  66 SE12      30.29S
HUNTER AAF     PTSUNNY   79  70  73 E12       30.27R
FORT STEWART   PTSUNNY   84  70  61 SE13G18   30.25S
STATESBORO     CLOUDY    81  72  75 SE6       30.28F
SYLVANIA       MOSUNNY   83  71  66 SE8       30.30S
CLAXTON        PTSUNNY   82  72  69 E7        30.27S

...CSRA...CENTRAL AND FAR SOUTHEAST GEORGIA...

CITY           SKY/WX    TMP DP  RH WIND       PRES   REMARKS
THOMSON        CLOUDY    79  68  68 E3        30.34S
AUGUSTA-BUSH   CLOUDY    78  64  61 SE6       30.30S
AUGUSTA-DANIEL CLOUDY    80  62  54 E9        30.31F
SWAINSBORO     PTSUNNY   82  70  65 SE9       30.29S
VIDALIA        SUNNY     82  68  61 E3        30.27S
EASTMAN        CLOUDY    83  72  69 E8        30.28F
HAZLEHURST     PTSUNNY   84  71  64 SE6       30.24F
ALMA           PTSUNNY   84  69  60 VRB3      30.24F
WAYCROSS       PTSUNNY   85  72  65 SE7       30.24F HX  91
JESUP          PTSUNNY   88  72  58 SE7       30.26S HX  94
BAXLEY         PTSUNNY   86  72  62 SE6       30.24F HX  92
BRUNSWICK        N/A     73  70  88 NE6       30.28F
SAINT SIMONS   NOT AVBL

$$

SCZ027-028-034-036>038-045-046-048>050-GAZ119-141-251700-
...LAKE AND SUPPLEMENTAL COASTAL OBSERVATIONS...

STATION/POSITION TIME  TEMP    WIND        PRES    WAVE   SWELL
                       AIR SEA DIR/SP/G            HT/PER HT/PER/DIR
                 (UTC) (F)     (DEG/KT/KT) (MB)    (FT/S) (FT/S/D)
UPR LAKE MARION  NOT AVBL
WINYAH BAY       NOT AVBL
LAKE MURRAY      1500   76     160/  5/  7 1026.1S
ACE BASIN NERRS  NOT AVBL
FORT PULASKI     1500   77 78   70/ 10/ 12 1026.3F
SAPELO ISLAND    1500   76     160/  2     1025.0S

$$

ANZ835-935-AMZ111-154-330-350-352-354-370-450-454-472-251700-
...C-MAN AND BUOY OBSERVATIONS...

STATION/POSITION TIME  TEMP    WIND        PRES    WAVE   SWELL
                       AIR SEA DIR/SP/G            HT/PER HT/PER/DIR
                 (UTC) (F)     (DEG/KT/KT) (MB)    (FT/S) (FT/S/D)
BUOY 41004       1550   76 75   90/ 12/ 12 1026.1F   4/ 7   3/ 7
BUOY 41008       1550   76 76  110/ 10/ 12 1025.4R   4/ 8   3/ 90/ 8
FOLLY BEACH CMAN 1600   76      80/ 10/ 11 1026.8R
CAPERS NEARSHORE 1508   75     100/ 10/ 14 1026.9S
FRIPP NEARSHORE  1500   77      90/ 12/ 14 1025.5S


STATION/POSITION TIME  TEMP    WIND        PRES    WAVE   SWELL
                       AIR SEA DIR/SP/G            HT/PER HT/PER/DIR
                 (UTC) (F)     (DEG/KT/KT) (MB)    (FT/S) (FT/S/D)
5E ST. MARYS GA  1521      78                N/A     4/ 8
FRYING PAN BUOY  1550   75 74  130/ 10/ 12 1028.2S   3/ 7   2/120/ 7
BUOY 41025       1550   73 78  150/  8/ 10 1028.6F   2/ 6   2/ 60/ 6
CAPE LOOKOUT NC  1600   73     130/  8/  8 1028.0S
BUOY 41002       1550   74 74  100/ 14/ 17 1027.5F   4/ 5   2/ 60/10
BUOY 41010       1520   79 81  100/ 10/ 12 1024.6R
ST AUGUSTINE FL  1600   77 78  110/  8/  9 1025.0S


$$


USA.gov is the U.S. government's official web portal to all federal, state and local government web resources and services.